GW6590 Weather Reports


Display with metric or nautical units.
time (UTC)temp
F
wind
direction
speed
MPH
gust
MPH
rain 1hr
in
rain 24hr
in
rain mn
in
humidity
%
barometer
mb
20260502130710 51 168 2.0 2.0 0.00 0.04 0.04 84 1028.0
20260502130208 51 168 0.0 0.0 0.00 0.04 0.04 88 1027.9
20260502123654 49 167 0.0 1.0 0.00 0.04 0.04 92 1028.3
20260502123150 48 164 3.0 3.0 0.00 0.04 0.04 92 1028.3
20260502122647 48 165 2.0 2.0 0.00 0.04 0.04 93 1028.7
20260502122143 48 168 0.0 1.0 0.00 0.04 0.04 93 1028.8
20260502121642 47 167 0.0 1.0 0.00 0.04 0.04 93 1028.6
20260502121139 47 166 2.0 2.0 0.00 0.04 0.04 94 1028.7
20260502120635 47 166 2.0 2.0 0.00 0.04 0.04 94 1028.8
20260502120132 47 168 1.0 1.0 0.00 0.04 0.04 94 1028.8
20260502115630 47 169 1.0 1.0 0.07 0.04 0.04 94 1028.6
20260502115126 47 169 1.0 1.0 0.07 0.04 0.04 94 1028.7
20260502114622 47 170 0.0 0.0 0.00 0.03 0.03 94 1028.6
20260502114120 47 171 0.0 1.0 0.00 0.03 0.03 93 1028.6
20260502113617 47 173 0.0 0.0 0.00 0.03 0.03 93 1028.7
20260502113115 47 173 1.0 1.0 0.05 0.03 0.03 93 1029.0
20260502112613 47 174 0.0 0.0 0.12 0.03 0.03 93 1029.1
20260502112110 47 173 0.0 0.0 0.07 0.02 0.02 93 1028.8
20260502111607 47 177 0.0 0.0 0.00 0.01 0.01 93 1029.1
20260502111104 47 162 0.0 0.0 0.00 0.01 0.01 93 1028.9
20260502110602 47 179 0.0 0.0 0.00 0.01 0.01 93 1029.0
20260502110059 47 182 1.0 1.0 0.00 0.01 0.01 93 1028.9
20260502105556 48 172 0.0 0.0 0.00 0.01 0.01 93 1028.9
20260502105054 47 172 0.0 0.0 0.00 0.01 0.01 93 1028.3
20260502104551 47 170 0.0 0.0 0.00 0.01 0.01 93 1028.0
20260502104048 47 172 0.0 0.0 0.00 0.01 0.01 92 1028.2
20260502103546 47 172 1.0 1.0 0.00 0.01 0.01 93 1027.9
20260502103044 47 165 0.0 0.0 0.00 0.01 0.01 93 1028.0
20260502102540 47 166 0.0 0.0 0.00 0.01 0.01 92 1028.2
20260502102037 47 163 0.0 0.0 0.00 0.01 0.01 92 1027.8
20260502101535 47 163 0.0 0.0 0.00 0.01 0.01 91 1028.2
20260502101033 47 163 0.0 0.0 0.00 0.01 0.01 91 1028.1
20260502100531 47 163 0.0 0.0 0.00 0.01 0.01 91 1028.2
20260502091506 47 166 0.0 1.0 0.00 0.00 0.00 86 1028.0
20260502091003 47 167 0.0 0.0 0.00 0.00 0.00 86 1027.9
20260502090500 47 151 0.0 0.0 0.00 0.00 0.00 86 1027.5
20260502071354 50 119 0.0 0.0 0.00 0.00 0.00 75 1027.8
20260502070853 49 171 0.0 0.0 0.00 0.00 0.00 75 1027.9
20260502070350 49 139 0.0 0.0 0.00 0.00 0.00 76 1027.8
20260502065849 49 139 0.0 0.0 0.00 0.00 0.00 77 1027.9
20260502065347 49 134 0.0 0.0 0.00 0.00 0.00 76 1027.7
20260502064844 50 122 1.0 1.0 0.00 0.00 0.00 74 1027.8
20260502064342 49 149 0.0 0.0 0.00 0.00 0.00 74 1027.9
20260502063839 49 154 0.0 0.0 0.00 0.00 0.00 76 1027.8
20260502063337 50 140 0.0 0.0 0.00 0.00 0.00 76 1027.6
20260502062834 50 128 0.0 0.0 0.00 0.00 0.00 73 1027.7
20260502062331 50 129 0.0 1.0 0.00 0.00 0.00 72 1028.0
20260502061830 50 152 0.0 0.0 0.00 0.00 0.00 72 1028.0
20260502061327 50 161 0.0 0.0 0.00 0.00 0.00 72 1027.9
20260502060823 50 160 0.0 0.0 0.00 0.00 0.00 71 1028.0
20260502060318 51 153 0.0 0.0 0.00 0.00 0.00 71 1027.9
20260502055816 51 137 0.0 0.0 0.00 0.00 0.00 70 1027.9
20260502055314 51 126 0.0 1.0 0.00 0.00 0.00 70 1027.8
20260502054813 51 138 0.0 0.0 0.00 0.00 0.00 69 1027.7
20260502054310 51 122 0.0 0.0 0.00 0.00 0.00 68 1027.6
20260502053808 51 143 0.0 1.0 0.00 0.00 0.00 67 1027.8
20260502053305 52 133 0.0 0.0 0.00 0.00 0.00 67 1027.8
20260502052803 52 99 0.0 0.0 0.00 0.00 0.00 67 1028.0
20260502052300 52 212 0.0 0.0 0.00 0.00 0.00 66 1027.9
20260502051758 52 210 1.0 2.0 0.00 0.00 0.00 67 1027.9
20260502051257 52 121 0.0 0.0 0.00 0.00 0.00 66 1027.9
20260502050752 52 124 0.0 1.0 0.00 0.00 0.00 66 1028.1
20260502050248 52 62 1.0 1.0 0.00 0.00 0.00 67 1028.1
20260502045746 52 114 1.0 1.0 0.00 0.00 0.00 67 1028.1
20260502045242 52 193 0.0 0.0 0.00 0.00 0.00 66 1028.0
20260502044739 52 41 0.0 0.0 0.00 0.00 0.00 67 1027.9
20260502044235 52 194 0.0 0.0 0.00 0.00 0.00 67 1028.3
20260502043733 52 127 1.0 1.0 0.00 0.00 0.00 67 1028.1
20260502043231 51 101 2.0 2.0 0.00 0.00 0.00 67 1028.1
20260502042730 51 111 0.0 1.0 0.00 0.00 0.00 68 1028.1
20260502042227 51 158 0.0 0.0 0.00 0.00 0.00 67 1028.1
20260502041725 51 102 0.0 0.0 0.00 0.00 0.00 68 1027.9
20260502041222 51 164 0.0 0.0 0.00 0.00 0.00 67 1028.2
20260502040719 51 175 1.0 1.0 0.00 0.00 0.00 68 1028.1
20260502040216 51 122 0.0 1.0 0.00 0.00 0.00 68 1028.2
20260502035712 51 159 0.0 1.0 0.00 0.00 0.00 67 1028.0
20260502035209 51 120 1.0 1.0 0.00 0.00 0.00 67 1028.1
20260502034706 51 131 1.0 1.0 0.00 0.00 0.00 67 1028.1
20260502034205 51 79 1.0 1.0 0.00 0.00 0.00 67 1028.1
20260502033702 51 124 1.0 1.0 0.00 0.00 0.00 67 1028.2
20260502033200 51 128 1.0 1.0 0.00 0.00 0.00 67 1028.1
20260502032656 52 125 0.0 0.0 0.00 0.00 0.00 66 1028.1
20260502032152 52 270 1.0 2.0 0.00 0.00 0.00 65 1028.2
20260502031650 51 110 2.0 2.0 0.00 0.00 0.00 65 1028.4
20260502031148 51 126 1.0 1.0 0.00 0.00 0.00 66 1028.2
20260502030646 52 135 1.0 1.0 0.00 0.00 0.00 65 1028.1
20260502030144 52 176 0.0 0.0 0.00 0.00 0.00 65 1028.1
20260502025641 52 178 1.0 1.0 0.00 0.00 0.00 65 1028.4
20260502025139 52 76 0.0 1.0 0.00 0.00 0.00 64 1028.2
20260502024637 52 97 1.0 1.0 0.00 0.00 0.00 64 1028.2
20260502024134 52 92 4.0 4.0 0.00 0.00 0.00 64 1028.1
20260502023632 52 110 1.0 1.0 0.00 0.00 0.00 63 1028.1
20260502023129 52 255 0.0 1.0 0.00 0.00 0.00 62 1028.2
20260502022626 53 254 2.0 3.0 0.00 0.00 0.00 62 1028.0
20260502022123 53 272 1.0 2.0 0.00 0.00 0.00 61 1028.0
20260502021620 53 220 2.0 2.0 0.00 0.00 0.00 61 1028.3
20260502021117 53 299 1.0 3.0 0.00 0.00 0.00 60 1028.3
20260502020615 53 211 0.0 1.0 0.00 0.00 0.00 60 1028.2
20260502020112 53 183 2.0 2.0 0.00 0.00 0.00 59 1028.3
20260502015610 54 92 2.0 2.0 0.00 0.00 0.00 59 1028.2
20260502015106 54 147 1.0 1.0 0.00 0.00 0.00 58 1028.1
20260502014603 54 119 1.0 1.0 0.00 0.00 0.00 56 1028.1
20260502014100 54 80 2.0 3.0 0.00 0.00 0.00 56 1028.0
20260502013555 54 39 1.0 1.0 0.00 0.00 0.00 55 1028.0
20260502013052 54 304 2.0 2.0 0.00 0.00 0.00 54 1028.0
20260502012549 54 214 0.0 0.0 0.00 0.00 0.00 53 1028.0
20260502012047 55 223 5.0 7.0 0.00 0.00 0.00 51 1028.1
20260502011543 55 125 2.0 6.0 0.00 0.00 0.00 51 1027.8
20260502011039 55 124 0.0 1.0 0.00 0.00 0.00 49 1027.7
20260502010537 55 134 1.0 2.0 0.00 0.00 0.00 48 1027.7
20260502010033 55 290 1.0 2.0 0.00 0.00 0.00 46 1027.8
20260502005531 56 359 1.0 2.0 0.00 0.00 0.00 45 1027.7
20260502005029 56 137 3.0 4.0 0.00 0.00 0.00 45 1027.5
20260502004524 56 116 1.0 1.0 0.00 0.00 0.00 45 1027.6
20260502004021 56 210 0.0 0.0 0.00 0.00 0.00 44 1027.5
20260502003519 56 155 1.0 1.0 0.00 0.00 0.00 45 1027.4
20260502003015 56 250 1.0 1.0 0.00 0.00 0.00 46 1027.3
20260502002512 54 138 0.0 1.0 0.00 0.00 0.00 47 1027.4
20260502002010 52 141 1.0 1.0 0.00 0.00 0.00 53 1027.2
20260502001507 52 113 1.0 1.0 0.00 0.00 0.00 62 1026.9
20260502001004 51 105 1.0 1.0 0.00 0.00 0.00 60 1026.9
20260502000503 51 110 1.0 1.0 0.00 0.00 0.00 61 1026.8
20260501235959 52 110 1.0 1.0 0.00 0.00 0.00 58 1026.8
20260501235455 52 113 1.0 1.0 0.00 0.00 0.00 57 1026.7
20260501234950 52 111 0.0 1.0 0.00 0.00 0.00 57 1026.7
20260501234447 53 107 1.0 2.0 0.00 0.00 0.00 54 1026.5
20260501233945 54 138 1.0 1.0 0.00 0.00 0.00 50 1026.4
20260501233443 55 115 1.0 1.0 0.00 0.00 0.00 48 1026.4
20260501232938 56 134 1.0 1.0 0.00 0.00 0.00 47 1026.4
20260501232435 57 152 0.0 0.0 0.00 0.00 0.00 46 1026.4
20260501231933 58 134 1.0 1.0 0.00 0.00 0.00 42 1026.3
20260501231431 59 184 0.0 0.0 0.00 0.00 0.00 42 1026.4
20260501230929 60 190 0.0 1.0 0.00 0.00 0.00 37 1026.2
20260501230428 60 233 0.0 1.0 0.00 0.00 0.00 36 1026.2
20260501225925 60 324 3.0 4.0 0.00 0.00 0.00 34 1026.2
20260501225422 61 217 0.0 0.0 0.00 0.00 0.00 35 1026.0
20260501224917 62 236 0.0 0.0 0.00 0.00 0.00 36 1025.9
20260501224415 61 232 1.0 1.0 0.00 0.00 0.00 34 1026.0
20260501223912 61 148 2.0 3.0 0.00 0.00 0.00 34 1026.1
20260501223408 62 264 2.0 3.0 0.00 0.00 0.00 34 1025.9
20260501222904 62 61 0.0 1.0 0.00 0.00 0.00 35 1025.9
20260501222402 62 256 0.0 1.0 0.00 0.00 0.00 33 1025.8
20260501221858 63 276 1.0 3.0 0.00 0.00 0.00 34 1026.0
20260501221355 63 230 0.0 1.0 0.00 0.00 0.00 32 1025.8
20260501220853 64 276 1.0 2.0 0.00 0.00 0.00 32 1026.1
20260501220350 64 286 1.0 1.0 0.00 0.00 0.00 32 1025.9
20260501215846 64 265 1.0 1.0 0.00 0.00 0.00 34 1025.9
20260501215343 64 264 4.0 4.0 0.00 0.00 0.00 32 1026.1
20260501214838 64 267 1.0 1.0 0.00 0.00 0.00 33 1026.1
20260501214334 64 240 3.0 4.0 0.00 0.00 0.00 33 1026.1
20260501213830 64 250 3.0 3.0 0.00 0.00 0.00 33 1026.1
20260501213327 64 227 2.0 3.0 0.00 0.00 0.00 32 1026.2
20260501212822 64 264 4.0 6.0 0.00 0.00 0.00 31 1026.1
20260501212319 64 171 3.0 3.0 0.00 0.00 0.00 32 1025.9
20260501211816 65 269 2.0 3.0 0.00 0.00 0.00 31 1026.0
20260501211314 65 279 3.0 3.0 0.00 0.00 0.00 33 1026.2
20260501210811 64 87 2.0 3.0 0.00 0.00 0.00 33 1025.9
20260501210308 64 283 1.0 1.0 0.00 0.00 0.00 33 1025.9
20260501205804 64 81 2.0 2.0 0.00 0.00 0.00 31 1025.8
20260501205301 64 270 0.0 0.0 0.00 0.00 0.00 34 1025.9
20260501204757 64 197 4.0 7.0 0.00 0.00 0.00 34 1025.9
20260501204254 63 281 1.0 2.0 0.00 0.00 0.00 33 1026.0
20260501203750 64 258 3.0 4.0 0.00 0.00 0.00 32 1025.9
20260501203248 64 265 2.0 3.0 0.00 0.00 0.00 33 1026.0
20260501202745 64 292 2.0 2.0 0.00 0.00 0.00 35 1025.9
20260501202241 63 251 0.0 0.0 0.00 0.00 0.00 32 1025.9
20260501201739 64 265 4.0 6.0 0.00 0.00 0.00 35 1025.8
20260501201235 64 262 3.0 6.0 0.00 0.00 0.00 33 1026.0
20260501200732 64 278 4.0 4.0 0.00 0.00 0.00 32 1026.1
20260501200229 64 344 2.0 3.0 0.00 0.00 0.00 33 1026.1
20260501195726 64 70 0.0 1.0 0.00 0.00 0.00 31 1025.7
20260501195223 63 92 1.0 2.0 0.00 0.00 0.00 33 1026.0
20260501194719 62 203 0.0 0.0 0.00 0.00 0.00 34 1026.0
20260501194214 63 277 3.0 7.0 0.00 0.00 0.00 33 1026.0
20260501193711 63 219 3.0 4.0 0.00 0.00 0.00 34 1025.9
20260501193209 63 267 2.0 3.0 0.00 0.00 0.00 34 1026.2
20260501192706 64 294 3.0 3.0 0.00 0.00 0.00 33 1026.2
20260501192204 63 225 3.0 6.0 0.00 0.00 0.00 35 1026.3
20260501191701 63 243 3.0 6.0 0.00 0.00 0.00 31 1026.2
20260501191158 62 192 3.0 4.0 0.00 0.00 0.00 34 1026.1
20260501190654 63 192 4.0 4.0 0.00 0.00 0.00 32 1026.4
20260501190150 63 254 2.0 3.0 0.00 0.00 0.00 33 1026.2
20260501185646 63 261 3.0 4.0 0.00 0.00 0.00 37 1026.3
20260501185142 62 251 3.0 4.0 0.00 0.00 0.00 35 1026.7
20260501184638 60 267 3.0 3.0 0.00 0.00 0.00 33 1026.5
20260501184133 61 267 5.0 8.0 0.00 0.00 0.00 36 1026.5
20260501183630 62 329 2.0 6.0 0.00 0.00 0.00 34 1026.6
20260501183126 62 268 1.0 1.0 0.00 0.00 0.00 41 1026.7
20260501182623 62 273 3.0 3.0 0.00 0.00 0.00 37 1026.6
20260501182120 62 256 3.0 4.0 0.00 0.00 0.00 37 1026.4
20260501181617 62 270 7.0 9.0 0.00 0.00 0.00 37 1026.8
20260501181114 61 303 6.0 8.0 0.00 0.00 0.00 33 1026.7
20260501180612 61 252 2.0 3.0 0.00 0.00 0.00 32 1026.5
20260501180108 60 248 2.0 3.0 0.00 0.00 0.00 34 1026.6
20260501175605 60 267 4.0 4.0 0.00 0.00 0.00 35 1026.7
20260501175102 60 187 2.0 4.0 0.00 0.00 0.00 38 1026.6
20260501174559 60 184 4.0 4.0 0.00 0.00 0.00 37 1026.7
20260501174056 60 313 8.0 11.0 0.00 0.00 0.00 36 1026.7
20260501173553 60 259 3.0 4.0 0.00 0.00 0.00 41 1026.8
20260501173050 60 261 2.0 3.0 0.00 0.00 0.00 40 1026.7
20260501172545 60 275 2.0 4.0 0.00 0.00 0.00 41 1027.0
20260501172041 58 242 2.0 2.0 0.00 0.00 0.00 45 1026.9
20260501171537 58 268 3.0 3.0 0.00 0.00 0.00 42 1027.0
20260501171034 59 303 2.0 3.0 0.00 0.00 0.00 40 1027.1
20260501170531 60 279 5.0 6.0 0.00 0.00 0.00 38 1027.2
20260501170028 60 36 3.0 4.0 0.00 0.00 0.00 43 1027.1
20260501165526 60 305 2.0 3.0 0.00 0.00 0.00 42 1027.0
20260501165023 58 220 1.0 2.0 0.00 0.00 0.00 42 1027.0
20260501164521 58 267 5.0 6.0 0.00 0.00 0.00 45 1027.1
20260501164017 59 225 3.0 3.0 0.00 0.00 0.00 41 1027.3
20260501163514 59 357 2.0 3.0 0.00 0.00 0.00 39 1027.2
20260501163011 59 8 2.0 4.0 0.00 0.00 0.00 44 1027.3
20260501162507 59 188 4.0 4.0 0.00 0.00 0.00 42 1027.2
20260501162004 59 207 2.0 2.0 0.00 0.00 0.00 44 1027.1
20260501161501 57 321 2.0 3.0 0.00 0.00 0.00 42 1027.4
20260501160958 57 265 2.0 2.0 0.00 0.00 0.00 46 1027.3
20260501160455 57 277 3.0 3.0 0.00 0.00 0.00 48 1027.3
20260501155952 56 254 5.0 7.0 0.00 0.00 0.00 45 1027.2
20260501155448 56 274 5.0 7.0 0.00 0.00 0.00 47 1027.6
20260501154945 56 278 5.0 6.0 0.00 0.00 0.00 47 1027.6
20260501154443 57 3 1.0 2.0 0.00 0.00 0.00 47 1027.5
20260501153939 57 254 5.0 6.0 0.00 0.00 0.00 49 1027.6
20260501153437 56 208 1.0 2.0 0.00 0.00 0.00 49 1027.7
20260501152933 54 11 3.0 4.0 0.00 0.00 0.00 49 1027.7
20260501152431 55 187 4.0 4.0 0.00 0.00 0.00 50 1027.8
20260501151928 56 261 4.0 6.0 0.00 0.00 0.00 48 1027.7
20260501151425 55 297 5.0 6.0 0.00 0.00 0.00 48 1027.7
20260501150921 54 10 2.0 3.0 0.00 0.00 0.00 50 1027.9
20260501150416 53 272 3.0 4.0 0.00 0.00 0.00 51 1027.8
20260501145913 54 251 2.0 2.0 0.00 0.00 0.00 51 1027.7
20260501145409 55 38 2.0 3.0 0.00 0.00 0.00 50 1027.8
20260501144907 53 24 2.0 3.0 0.00 0.00 0.00 53 1027.9
20260501144403 54 335 3.0 6.0 0.00 0.00 0.00 49 1027.9
20260501143859 55 3 3.0 4.0 0.00 0.00 0.00 53 1027.9
20260501143355 54 355 1.0 1.0 0.00 0.00 0.00 52 1027.9
20260501142852 53 238 4.0 4.0 0.00 0.00 0.00 55 1028.0
20260501142349 52 266 2.0 4.0 0.00 0.00 0.00 56 1027.9
20260501141845 52 70 1.0 2.0 0.00 0.00 0.00 55 1027.8